Wind_Speed
30 28 27 24 21 21 20 20 19 17 16 15 15 13 14 12 11 15 17 22 21 18 17 18 18 16 16 17 16 14 13 12 12 11 10 8 7 6 5 4 5 5 6
37 38 29 27 25 25 24 22 21 20 18 17 15 15 16 15 13 17 20 26 26 24 23 25 23 18 17 16 15 15 15 14 13 13 11 11 9 8 7 7 6 7 7
28 27 23 24 27 27 26 26 25 24 23 21 18 16 18 18 16 17 24 26 31 32 24 21 27 23 19 18 17 17 17 16 15 14 13 13 11 10 9 9 8 8 8
37 36 35 33 30 29 30 28 27 27 25 24 21 18 19 19 20 18 23 27 30 31 30 27 24 18 19 19 17 19 17 17 16 15 16 15 14 13 12 11 10 10 10
45 42 37 35 35 34 34 32 31 29 28 27 25 23 22 21 21 21 21 22 25 27 28 28 26 22 21 19 21 20 18 18 18 17 17 17 16 15 14 13 12 12 12
44 46 45 42 38 37 37 35 34 31 30 29 28 27 25 25 23 22 22 21 20 23 24 25 25 26 24 22 22 21 19 19 19 18 18 18 18 17 16 15 14 14 13
46 46 46 44 42 40 38 37 37 36 35 32 31 31 29 28 27 25 24 22 21 22 22 22 24 24 23 22 22 23 20 20 19 19 19 20 19 19 18 18 17 17 16
48 46 45 46 44 44 41 41 41 39 39 39 35 31 32 32 32 29 26 25 24 23 21 21 21 22 23 22 23 24 22 19 21 21 21 21 21 21 21 20 19 19 19
47 47 47 43 45 45 45 43 43 43 42 38 40 37 36 38 31 31 29 26 23 21 20 20 20 20 20 21 22 23 22 22 23 23 23 23 23 23 23 22 22 22 22
47 50 47 47 44 45 45 45 43 44 43 42 42 38 41 39 33 30 28 26 23 21 19 21 22 21 21 20 21 21 22 23 24 23 24 25 25 25 25 24 24 23 23
49 50 52 52 50 47 45 47 45 45 47 44 46 44 41 35 35 31 25 24 23 21 21 22 21 21 22 21 20 20 20 21 21 22 23 25 25 27 27 27 26 26 26
50 52 51 55 54 54 50 48 47 45 46 47 45 46 40 43 41 39 37 33 26 28 26 24 23 21 20 18 19 20 21 21 21 22 22 23 24 25 26 27 28 28 28
44 47 50 54 57 56 56 50 47 49 48 46 45 48 49 41 39 39 39 38 33 32 30 30 26 24 22 20 20 22 23 24 23 23 23 24 25 25 26 26 27 29 29
49 47 46 48 56 56 56 55 53 50 50 50 46 41 46 43 43 50 38 40 34 25 28 30 27 25 23 23 23 25 25 25 25 26 27 26 25 26 28 27 27 28 29
53 49 45 46 52 55 55 56 55 53 54 53 53 44 47 45 40 47 41 38 33 31 27 29 25 24 24 26 27 31 32 31 32 32 31 30 29 30 31 32 31 29 28
56 55 53 51 47 54 55 55 54 52 52 54 54 52 48 45 42 44 38 41 44 29 31 28 25 24 25 31 29 30 30 31 32 33 32 31 32 32 33 34 33 31 32
55 57 56 54 51 56 56 52 50 51 53 52 52 52 50 48 44 43 44 42 35 33 37 35 29 30 31 32 34 30 29 32 33 34 34 33 34 33 33 33 33 29 28
49 54 54 56 52 56 58 55 53 52 50 50 50 49 47 47 42 41 36 37 34 37 37 36 32 32 32 34 34 34 32 34 34 34 35 35 32 33 33 32 33 34 31
47 47 54 54 50 55 58 58 54 52 51 49 50 48 48 47 45 43 40 39 45 39 35 33 28 33 36 36 36 36 32 33 35 35 31 32 34 34 34 34 34 36 33
43 47 48 53 52 53 57 55 53 52 51 50 48 46 46 45 42 40 39 39 38 40 43 45 39 41 39 39 39 37 39 38 36 34 36 38 37 35 39 39 37 36 34
34 43 53 47 53 63 53 52 52 51 51 49 48 46 45 43 41 41 40 38 38 39 39 41 43 42 39 39 37 33 37 38 37 38 40 42 41 43 43 45 42 42 38
22 32 53 55 51 58 45 53 50 51 52 49 49 46 43 43 42 40 38 38 38 37 36 37 38 42 40 38 34 34 40 37 39 39 40 37 34 41 40 40 39 40 39
23 26 36 39 50 57 56 45 53 54 51 51 47 39 40 41 41 39 38 37 37 36 38 39 38 36 39 40 44 43 42 43 42 40 36 39 38 40 37 42 42 43 46
16 27 31 36 41 51 51 49 54 46 46 45 44 44 42 41 41 39 39 38 39 37 37 39 43 44 45 45 42 38 37 38 40 39 42 42 37 40 40 36 38 39 41
7 13 18 37 49 44 44 46 41 43 43 38 38 39 38 37 38 40 38 37 36 38 38 41 41 43 41 38 37 36 37 38 42 42 37 41 41 43 43 46 39 40 41
4 4 9 10 38 35 39 38 39 36 35 34 34 31 29 30 31 31 32 34 35 34 34 35 40 42 42 38 36 36 38 39 41 43 41 43 42 40 38 38 38 40 40
Wind_Direction
222 226 232 232 237 243 245 252 254 257 260 262 257 250 248 238 215 207 192 161 175 191 198 189 190 183 188 191 195 198 204 202 203 204 205 208 214 213 214 227 240 250 261
222 213 218 232 238 240 246 251 252 254 256 256 255 251 249 245 222 208 203 187 177 189 199 203 205 208 201 201 206 207 214 215 214 218 218 222 222 222 224 232 245 257 265
251 255 251 230 238 242 243 247 251 253 254 255 252 248 249 248 241 217 211 211 200 201 196 202 221 224 215 211 217 221 220 222 223 224 225 231 232 233 233 237 245 254 263
237 237 239 239 241 245 247 246 248 251 253 254 254 249 248 246 245 233 222 223 220 218 220 216 230 222 222 224 224 230 226 227 228 229 231 233 235 238 239 243 247 253 259
237 237 238 239 238 238 242 246 246 248 249 250 256 252 248 247 246 241 236 227 225 227 231 234 236 231 229 227 231 233 231 230 232 231 234 237 239 243 246 250 254 260 267
236 235 236 236 237 235 235 238 243 245 249 248 248 253 249 248 247 244 240 232 222 228 233 235 236 234 233 229 233 235 231 230 235 236 240 242 244 246 250 255 259 262 267
236 236 236 235 234 234 235 235 238 241 244 246 245 245 247 248 247 243 243 242 233 232 232 233 234 234 231 228 232 232 230 230 235 238 241 244 247 249 251 254 258 262 266
236 235 236 235 234 234 232 233 234 237 241 245 242 246 246 247 248 246 244 241 236 233 233 234 234 234 233 225 230 233 238 234 237 238 240 244 246 248 251 254 257 261 265
235 234 233 234 234 234 232 232 235 234 238 243 247 236 239 246 251 251 249 248 242 238 232 232 234 233 233 232 228 236 240 238 237 238 241 244 247 250 252 254 258 262 265
239 236 235 231 230 233 233 231 233 233 234 238 240 238 246 242 246 253 252 248 244 236 228 231 232 232 232 232 234 236 238 241 240 241 244 245 248 252 254 257 260 264 268
244 239 237 234 231 228 232 231 231 233 233 235 242 237 237 248 237 244 237 237 237 233 232 230 230 229 231 232 235 240 241 242 245 247 247 250 251 254 257 259 262 266 268
240 237 238 237 235 230 228 230 233 232 234 235 237 246 240 246 241 242 247 243 244 234 229 226 230 230 231 232 235 241 245 247 249 252 254 256 257 257 260 263 265 266 268
234 235 238 239 236 235 228 229 231 232 233 233 233 240 246 239 246 234 251 250 246 235 226 222 224 231 235 238 240 244 249 255 256 255 255 257 260 262 263 264 266 268 270
230 237 238 238 239 236 233 228 231 231 233 235 237 236 239 242 249 248 250 254 249 231 227 226 227 229 233 239 244 249 251 252 257 259 258 260 262 266 269 268 266 268 270
235 237 239 240 234 235 233 231 232 235 235 235 235 234 236 239 245 241 242 251 252 252 230 246 240 243 243 247 254 255 253 253 256 260 263 263 264 267 270 272 270 269 270
238 242 241 242 236 230 229 228 231 233 233 234 233 233 235 236 238 239 245 249 255 256 244 257 261 251 254 263 257 264 259 256 258 261 263 265 268 269 268 270 270 271 271
239 239 238 233 234 227 224 225 227 229 230 232 233 233 236 238 238 236 237 236 259 255 249 255 254 252 253 257 264 263 262 260 259 261 263 267 268 270 272 274 275 272 271
245 239 239 231 231 227 225 224 225 228 228 230 231 231 233 233 235 236 237 237 249 238 248 241 242 248 262 258 257 261 263 263 260 262 268 269 271 271 274 278 279 277 278
246 230 235 222 224 228 225 224 223 226 227 228 229 230 230 231 233 238 238 237 238 252 239 248 244 249 264 258 263 268 259 265 267 269 264 269 272 273 269 272 274 285 279
216 225 222 222 223 225 224 223 222 222 222 224 226 227 229 232 233 234 239 242 246 248 248 257 261 259 259 260 258 260 263 262 265 266 262 264 264 269 272 270 274 281 277
215 221 221 219 216 224 214 206 219 217 219 222 224 226 228 230 233 235 236 238 242 245 247 252 257 259 258 258 264 266 264 264 261 261 264 267 267 269 266 268 274 277 269
210 210 217 222 229 224 212 202 210 215 215 217 221 222 225 227 228 231 235 237 240 246 250 253 256 257 260 261 261 262 261 268 274 269 271 272 270 272 270 266 271 267 266
215 206 196 189 202 209 204 195 208 211 210 216 222 217 221 225 228 230 234 240 243 248 250 252 257 256 260 259 256 261 269 268 270 271 270 270 268 274 272 274 266 268 270
196 217 200 194 197 198 205 206 217 210 210 211 218 223 224 227 232 234 239 242 243 244 247 253 252 256 262 265 269 265 263 264 266 271 271 278 266 274 267 266 266 264 269
159 174 206 192 204 190 186 189 202 196 205 211 218 223 227 229 234 238 238 245 245 250 250 253 256 262 266 265 267 268 267 270 270 272 272 272 275 274 271 262 264 261 270
273 156 159 170 196 183 191 186 196 193 204 205 219 222 219 226 225 231 237 246 249 248 251 248 253 258 264 268 268 268 273 273 271 274 273 273 274 273 274 270 269 266 273
Height
3112 3117 3123 3127 3130 3132 3133 3135 3136 3138 3139 3141 3143 3144 3145 3147 3149 3151 3153 3156 3159 3163 3164 3165 3166 3166 3168 3170 3172 3174 3176 3177 3178 3180 3181 3182 3184 3185 3186 3186 3187 3188 3188
3092 3105 3112 3121 3125 3129 3131 3131 3133 3134 3136 3138 3140 3142 3143 3144 3148 3149 3151 3154 3157 3160 3162 3163 3162 3163 3166 3168 3170 3172 3173 3174 3176 3178 3180 3181 3182 3182 3183 3184 3185 3186 3186
3098 3099 3104 3114 3120 3123 3125 3127 3129 3131 3132 3135 3137 3139 3140 3142 3145 3148 3149 3151 3153 3155 3157 3159 3160 3160 3162 3165 3167 3168 3170 3172 3174 3176 3177 3178 3180 3180 3181 3182 3183 3183 3184
3096 3100 3104 3110 3114 3117 3120 3122 3125 3127 3129 3131 3133 3136 3137 3139 3141 3144 3146 3147 3149 3150 3152 3153 3154 3157 3159 3161 3163 3164 3166 3168 3171 3173 3174 3176 3177 3178 3179 3179 3180 3180 3180
3090 3093 3097 3102 3107 3110 3113 3116 3120 3122 3124 3127 3129 3131 3132 3134 3136 3139 3141 3143 3144 3146 3148 3149 3150 3154 3155 3157 3159 3161 3163 3165 3167 3169 3170 3172 3173 3174 3176 3177 3177 3178 3178
3081 3084 3089 3093 3098 3101 3105 3109 3114 3117 3119 3122 3123 3126 3128 3129 3131 3133 3136 3138 3141 3142 3144 3145 3147 3149 3151 3153 3155 3156 3159 3161 3163 3165 3167 3168 3169 3170 3172 3173 3174 3174 3175
3071 3075 3080 3084 3088 3093 3098 3103 3107 3109 3112 3115 3118 3120 3124 3125 3126 3128 3131 3133 3136 3138 3140 3141 3143 3144 3146 3149 3151 3152 3155 3157 3159 3161 3162 3164 3165 3166 3167 3168 3169 3170 3170
3061 3065 3069 3074 3079 3084 3088 3093 3097 3101 3104 3108 3111 3116 3118 3120 3121 3124 3127 3128 3131 3133 3135 3136 3138 3140 3142 3144 3146 3147 3149 3152 3154 3155 3157 3159 3160 3161 3162 3163 3164 3165 3165
3050 3055 3060 3064 3070 3074 3078 3084 3088 3092 3095 3100 3103 3108 3109 3111 3118 3120 3122 3124 3126 3128 3130 3132 3133 3136 3138 3139 3141 3142 3145 3146 3148 3150 3152 3153 3154 3156 3157 3158 3159 3160 3160
3040 3044 3049 3054 3059 3064 3068 3074 3079 3083 3087 3092 3095 3099 3102 3107 3111 3115 3118 3120 3122 3124 3125 3127 3129 3130 3133 3135 3136 3138 3140 3141 3143 3145 3146 3148 3149 3150 3152 3153 3154 3155 3156
3028 3033 3038 3043 3048 3053 3059 3065 3069 3073 3078 3084 3086 3090 3095 3099 3104 3109 3112 3115 3117 3119 3120 3122 3124 3126 3128 3130 3132 3133 3135 3136 3138 3139 3141 3142 3144 3145 3146 3147 3148 3149 3150
3015 3020 3026 3030 3036 3042 3048 3055 3061 3065 3069 3074 3079 3080 3086 3090 3097 3103 3106 3110 3111 3114 3116 3117 3119 3121 3124 3125 3127 3128 3130 3131 3133 3135 3136 3137 3138 3139 3140 3141 3142 3143 3143
3002 3008 3013 3018 3023 3030 3037 3044 3050 3055 3059 3064 3069 3072 3079 3083 3089 3090 3096 3100 3103 3106 3107 3109 3112 3115 3117 3120 3122 3123 3124 3126 3127 3129 3130 3131 3132 3133 3134 3135 3135 3136 3136
2989 2996 3000 3006 3010 3018 3025 3033 3039 3045 3049 3055 3060 3064 3070 3075 3078 3084 3088 3091 3090 3095 3099 3101 3105 3108 3111 3113 3115 3116 3118 3120 3122 3123 3124 3125 3125 3126 3126 3128 3128 3128 3128
2975 2982 2987 2993 2999 3006 3014 3020 3027 3033 3039 3045 3049 3056 3062 3067 3070 3075 3080 3083 3087 3086 3091 3094 3097 3100 3102 3106 3109 3109 3111 3112 3114 3115 3116 3117 3119 3119 3119 3118 3120 3121 3121
2962 2968 2975 2981 2987 2994 3002 3008 3015 3022 3028 3033 3039 3046 3051 3057 3062 3067 3072 3076 3079 3082 3085 3087 3089 3091 3094 3100 3101 3102 3103 3104 3105 3107 3108 3109 3110 3110 3110 3110 3111 3112 3113
2947 2953 2960 2968 2974 2981 2989 2996 3004 3010 3017 3023 3029 3036 3041 3047 3053 3059 3064 3067 3069 3074 3077 3082 3084 3087 3090 3092 3093 3094 3095 3096 3097 3098 3100 3101 3102 3102 3102 3101 3102 3103 3103
2932 2938 2948 2955 2963 2969 2978 2984 2992 2999 3006 3013 3019 3026 3032 3037 3043 3049 3054 3058 3064 3067 3070 3073 3076 3079 3082 3085 3086 3085 3087 3088 3090 3091 3092 3093 3093 3094 3094 3094 3094 3093 3094
2921 2927 2934 2942 2950 2956 2965 2973 2981 2989 2997 3003 3010 3017 3022 3028 3034 3040 3045 3050 3055 3057 3060 3063 3067 3070 3074 3076 3077 3077 3079 3081 3082 3084 3084 3085 3085 3085 3086 3085 3085 3085 3085
2910 2916 2924 2929 2938 2945 2953 2962 2969 2978 2986 2993 3001 3008 3013 3019 3025 3031 3036 3041 3045 3049 3052 3055 3057 3061 3065 3067 3068 3069 3071 3073 3074 3075 3075 3075 3076 3076 3076 3076 3077 3077 3076
2901 2905 2911 2914 2924 2932 2941 2948 2958 2967 2976 2983 2990 2998 3004 3010 3016 3021 3026 3031 3035 3039 3043 3046 3049 3052 3056 3059 3059 3061 3061 3063 3063 3064 3065 3065 3066 3065 3067 3067 3066 3067 3067
2893 2897 2903 2907 2913 2920 2929 2927 2946 2957 2966 2974 2981 2988 2995 3001 3007 3012 3017 3022 3027 3030 3033 3037 3040 3043 3046 3049 3051 3052 3051 3051 3051 3055 3053 3054 3055 3054 3055 3055 3056 3055 3056
2888 2891 2892 2899 2905 2915 2921 2922 2935 2947 2956 2965 2973 2980 2986 2992 2998 3003 3008 3012 3017 3021 3024 3028 3030 3032 3036 3039 3040 3041 3042 3041 3041 3042 3041 3040 3045 3043 3045 3044 3044 3044 3043
2883 2887 2891 2892 2900 2904 2916 2920 2924 2936 2948 2957 2965 2971 2977 2984 2989 2994 2998 3002 3006 3011 3015 3018 3021 3024 3025 3027 3029 3030 3030 3029 3029 3030 3031 3027 3032 3031 3033 3032 3032 3032 3031
2881 2883 2886 2889 2898 2901 2907 2909 2920 2930 2941 2948 2956 2963 2970 2976 2981 2986 2990 2994 2996 3000 3006 3010 3012 3015 3016 3016 3017 3018 3018 3019 3017 3017 3021 3018 3018 3019 3018 3018 3020 3020 3019
2880 2880 2883 2885 2892 2893 2898 2903 2913 2923 2932 2941 2948 2956 2962 2967 2974 2977 2981 2985 2988 2993 2998 3001 3003 3004 3006 3007 3007 3007 3008 3006 3006 3004 3009 3008 3007 3008 3004 3004 3006 3007 3008